Weather History for KLCG - October, 2012

Change the Weather History Date:

Saturday, October 6, 2012

  Actual Average (KOFK) Record (KOFK)
Temperature  
Mean Temperature 35 °F 55 °F  
Max Temperature 46 °F 68 °F 90 °F (1997)
Min Temperature 24 °F 42 °F 22 °F (2000)
Degree Days  
Heating Degree Days 30 11  
Month to date heating degree days 59  
Since 1 July heating degree days 201  
Cooling Degree Days 0 1  
Month to date cooling degree days 6  
Year to date cooling degree days 912  
Moisture  
Dew Point 22 °F    
Average Humidity 64    
Maximum Humidity 82    
Minimum Humidity 44    
Precipitation  
Precipitation 0.00 in 0.08 in 1.54 in (2008)
Month to date precipitation 0.50  
Year to date precipitation 23.72  
Snow  
Snow 0.00 in 0.00 in - ()
Month to date snowfall 0.0  
Since 1 July snowfall T  
Snow Depth -    
Sea Level Pressure  
Sea Level Pressure 30.33 in    
Wind  
Wind Speed 8 mph (NW)    
Max Wind Speed 16 mph    
Max Gust Speed 25 mph    
Visibility 10 miles    
Events      
T = Trace of Precipitation, MM = Missing Value Source: NWS Daily Summary

Daily Weather History Graph

Daily Weather History Graph

Search for Another Location

Airport or City:

Trip Planner

Search our weather history database for the weather conditions in past years. The results will help you decide how hot, cold, wet, or windy it might be!

Date:

Astronomy

Oct. 06, 2012 Rise Set
Actual Time 7:31 AM CDT 6:59 PM CDT
Civil Twilight 7:03 AM CDT 7:27 PM CDT
Nautical Twilight 6:30 AM CDT 8:00 PM CDT
Astronomical Twilight 5:57 AM CDT 8:32 PM CDT
Moon 11:11 PM CDT (10/6) 1:31 PM CDT (10/6)
Length of Visible Light 12h 24m
Length of Day
11h 28m
Waning Gibbous, 65% of the Moon is Illuminated
Oct 6
Waning Gibbous
Oct 8
Last Quarter
Oct 15
New
Oct 21
First Quarter
Oct 29
Full

Hourly Weather History & Observations

Time (CDT) Temp. Windchill Dew Point Humidity Pressure Visibility Wind Dir Wind Speed Gust Speed Precip Events Conditions
12:15 AM 31.1 °F 26.4 °F 19.9 °F 63% 30.33 in 10.0 mi NNW 4.6 mph - N/A   Clear
12:35 AM 29.5 °F 25.9 °F 19.2 °F 66% 30.33 in 10.0 mi NW 3.5 mph - N/A   Clear
12:55 AM 29.3 °F 24.3 °F 19.4 °F 67% 30.33 in 10.0 mi NW 4.6 mph - N/A   Clear
1:15 AM 28.4 °F 24.6 °F 19.2 °F 69% 30.33 in 10.0 mi NW 3.5 mph - N/A   Clear
1:35 AM 27.3 °F 22.0 °F 19.0 °F 71% 30.32 in 10.0 mi WNW 4.6 mph - N/A   Clear
1:55 AM 27.7 °F 22.4 °F 19.2 °F 71% 30.33 in 10.0 mi WNW 4.6 mph - N/A   Clear
2:15 AM 26.6 °F 17.5 °F 18.5 °F 71% 30.33 in 10.0 mi WNW 9.2 mph - N/A   Clear
2:35 AM 27.5 °F 18.6 °F 19.2 °F 71% 30.33 in 10.0 mi WNW 9.2 mph - N/A   Clear
2:55 AM 28.4 °F 20.4 °F 19.4 °F 69% 30.33 in 10.0 mi NW 8.1 mph - N/A   Clear
3:15 AM 26.4 °F 18.0 °F 18.5 °F 72% 30.33 in 10.0 mi WNW 8.1 mph - N/A   Clear
3:35 AM 27.0 °F 18.7 °F 19.2 °F 73% 30.33 in 10.0 mi WNW 8.1 mph - N/A   Clear
3:55 AM 26.4 °F 16.6 °F 19.4 °F 75% 30.33 in 10.0 mi WNW 10.4 mph - N/A   Clear
4:15 AM 27.3 °F 18.4 °F 19.9 °F 74% 30.33 in 10.0 mi NW 9.2 mph - N/A   Clear
4:35 AM 26.4 °F 18.9 °F 19.4 °F 75% 30.33 in 10.0 mi NW 6.9 mph - N/A   Clear
4:55 AM 26.2 °F 17.1 °F 19.8 °F 76% 30.34 in 10.0 mi NW 9.2 mph - N/A   Clear
5:15 AM 27.0 °F 18.0 °F 20.5 °F 77% 30.34 in 10.0 mi NW 9.2 mph - N/A   Clear
5:35 AM 26.1 °F 16.8 °F 20.1 °F 78% 30.35 in 10.0 mi WNW 9.2 mph - N/A   Clear
5:55 AM 25.7 °F 18.0 °F 20.3 °F 80% 30.36 in 10.0 mi WNW 6.9 mph - N/A   Clear
6:15 AM 24.8 °F 17.9 °F 19.9 °F 82% 30.36 in 10.0 mi WNW 5.8 mph - N/A   Clear
6:35 AM 26.2 °F 17.8 °F 20.3 °F 78% 30.36 in 10.0 mi NW 8.1 mph - N/A   Clear
6:55 AM 26.2 °F 18.6 °F 20.1 °F 78% 30.36 in 10.0 mi NW 6.9 mph - N/A   Clear
7:15 AM 26.1 °F 18.4 °F 20.3 °F 79% 30.35 in 10.0 mi NW 6.9 mph - N/A   Clear
7:35 AM 25.5 °F 16.9 °F 19.9 °F 79% 30.36 in 10.0 mi NW 8.1 mph - N/A   Clear
7:55 AM 25.2 °F 17.3 °F 20.1 °F 81% 30.36 in 10.0 mi NW 6.9 mph - N/A   Clear
8:15 AM 27.5 °F 21.1 °F 21.2 °F 77% 30.36 in 10.0 mi NNW 5.8 mph - N/A   Clear
8:35 AM 29.5 °F 21.8 °F 22.5 °F 75% 30.35 in 10.0 mi NW 8.1 mph - N/A   Clear
8:55 AM 31.6 °F 22.6 °F 23.2 °F 71% 30.36 in 10.0 mi NW 11.5 mph - N/A   Clear
9:15 AM 33.1 °F 23.4 °F 24.3 °F 70% 30.36 in 10.0 mi NNW 13.8 mph - N/A   Clear
9:35 AM 34.3 °F 24.2 °F 25.3 °F 70% 30.37 in 10.0 mi NNW 16.1 mph 24.2 mph N/A   Clear
9:55 AM 35.8 °F 26.5 °F 26.2 °F 68% 30.37 in 10.0 mi NNW 15.0 mph 19.6 mph N/A   Clear
10:15 AM 36.9 °F 28.2 °F 26.6 °F 66% 30.38 in 10.0 mi NNW 13.8 mph 23.0 mph N/A   Clear
10:35 AM 38.3 °F 29.3 °F 26.2 °F 62% 30.37 in 10.0 mi NW 16.1 mph 21.9 mph N/A   Clear
10:55 AM 39.2 °F 30.5 °F 26.6 °F 61% 30.37 in 10.0 mi North 16.1 mph 21.9 mph N/A   Scattered Clouds
11:15 AM 39.4 °F 30.7 °F 26.8 °F 61% 30.37 in 10.0 mi North 16.1 mph 20.7 mph N/A   Clear
11:35 AM 40.5 °F 32.5 °F 26.6 °F 58% 30.37 in 10.0 mi North 15.0 mph 23.0 mph N/A   Scattered Clouds
11:55 AM 41.4 °F 34.3 °F 26.4 °F 55% 30.37 in 10.0 mi NNW 12.7 mph - N/A   Scattered Clouds
12:15 PM 41.2 °F 34.1 °F 25.9 °F 55% 30.38 in 10.0 mi NNW 12.7 mph 21.9 mph N/A   Scattered Clouds
12:35 PM 43.0 °F 36.4 °F 26.2 °F 52% 30.37 in 10.0 mi NNW 12.7 mph - N/A   Scattered Clouds
12:55 PM 42.4 °F 35.0 °F 25.5 °F 51% 30.37 in 10.0 mi North 15.0 mph 20.7 mph N/A   Mostly Cloudy
1:15 PM 43.7 °F 37.7 °F 25.5 °F 49% 30.36 in 10.0 mi NNW 11.5 mph 19.6 mph N/A   Mostly Cloudy
1:35 PM 43.7 °F 37.7 °F 25.5 °F 49% 30.35 in 10.0 mi NNW 11.5 mph 21.9 mph N/A   Mostly Cloudy
1:55 PM 44.2 °F 38.0 °F 25.9 °F 49% 30.34 in 10.0 mi North 12.7 mph 25.3 mph N/A   Mostly Cloudy
2:15 PM 46.0 °F 40.2 °F 25.9 °F 45% 30.34 in 10.0 mi NW 12.7 mph 18.4 mph N/A   Mostly Cloudy
2:35 PM 44.1 °F 37.1 °F 25.2 °F 47% 30.32 in 10.0 mi North 15.0 mph 18.4 mph N/A   Overcast
2:55 PM 44.4 °F 38.6 °F 25.5 °F 48% 30.32 in 10.0 mi North 11.5 mph 19.6 mph N/A   Mostly Cloudy
3:15 PM 46.4 °F 40.7 °F 25.7 °F 44% 30.31 in 10.0 mi North 12.7 mph 19.6 mph N/A   Mostly Cloudy
3:35 PM 46.2 °F 40.1 °F 25.3 °F 44% 30.31 in 10.0 mi NNW 13.8 mph 21.9 mph N/A   Mostly Cloudy
3:55 PM 43.7 °F 38.6 °F 24.8 °F 47% 30.31 in 10.0 mi NNW 9.2 mph 19.6 mph N/A   Scattered Clouds
4:15 PM 44.8 °F 37.7 °F 24.4 °F 45% 30.31 in 10.0 mi North 16.1 mph 19.6 mph N/A   Mostly Cloudy
4:35 PM 44.8 °F 38.0 °F 25.0 °F 46% 30.31 in 10.0 mi North 15.0 mph 19.6 mph N/A   Mostly Cloudy
4:55 PM 44.8 °F 39.0 °F 25.2 °F 46% 30.30 in 10.0 mi NW 11.5 mph - N/A   Mostly Cloudy
5:15 PM 43.5 °F 37.1 °F 25.3 °F 49% 30.30 in 10.0 mi NW 12.7 mph - N/A   Scattered Clouds
5:35 PM 43.0 °F 37.2 °F 24.3 °F 48% 30.30 in 10.0 mi NW 10.4 mph - N/A   Clear
6:15 PM 42.6 °F 37.8 °F 23.5 °F 47% 30.30 in 10.0 mi NW 8.1 mph - N/A   Clear
6:35 PM 42.1 °F 37.7 °F 23.7 °F 48% 30.30 in 10.0 mi WNW 6.9 mph - N/A   Clear
6:55 PM 39.4 °F 34.5 °F 23.0 °F 52% 30.30 in 10.0 mi WNW 6.9 mph - N/A   Scattered Clouds
7:15 PM 37.6 °F 34.0 °F 22.6 °F 55% 30.30 in 10.0 mi WNW 4.6 mph - N/A   Clear
7:35 PM 35.6 °F 29.9 °F 21.9 °F 58% 30.30 in 10.0 mi WNW 6.9 mph - N/A   Clear
7:55 PM 33.8 °F 28.6 °F 21.4 °F 60% 30.31 in 10.0 mi WNW 5.8 mph - N/A   Clear
8:15 PM 33.1 °F 27.7 °F 21.4 °F 62% 30.31 in 10.0 mi WNW 5.8 mph - N/A   Clear
8:35 PM 29.1 °F - 19.4 °F 67% 30.31 in 10.0 mi Calm Calm - N/A   Clear
8:55 PM 26.6 °F - 18.0 °F 70% 30.31 in 10.0 mi Calm Calm - N/A   Clear
9:15 PM 28.6 °F - 19.2 °F 68% 30.31 in 10.0 mi Calm Calm - N/A   Clear
9:35 PM 30.7 °F 24.9 °F 21.0 °F 67% 30.31 in 10.0 mi West 5.8 mph - N/A   Clear
9:55 PM 31.6 °F 27.0 °F 21.0 °F 65% 30.31 in 10.0 mi West 4.6 mph - N/A   Clear
10:15 PM 28.6 °F - 20.1 °F 71% 30.31 in 10.0 mi Calm Calm - N/A   Clear
10:35 PM 29.3 °F - 20.7 °F 70% 30.31 in 10.0 mi Calm Calm - N/A   Clear
10:55 PM 27.5 °F - 20.1 °F 74% 30.31 in 10.0 mi Calm Calm - N/A   Clear
11:15 PM 26.2 °F - 19.2 °F 75% 30.30 in 10.0 mi Calm Calm - N/A   Clear
11:35 PM 25.3 °F - 18.9 °F 76% 30.30 in 10.0 mi Calm Calm - N/A   Clear
11:55 PM 24.4 °F - 18.3 °F 78% 30.30 in 10.0 mi Calm Calm - N/A   Clear